Showing default

LEMUR 2 NEUROSPICY, 63355

Orbit data source: Space-Track

LEMUR 2 NEUROSPICY, 63355 is a payload satellite owned by OroraTech (US) in SSO that was launched on Wed, 26 Mar 2025 UTC via an ELECTRON launch vehicle from the Rocket Lab Launch Complex (RLLC). Payload-class satellites include a variety of spacecraft equipped with specific instruments for various scientific and technological missions. These include communications satellites like Starlink; space stations such as the ISS; scientific satellites like the Hubble; Earth observation satellites from companies like Planet Labs, Umbra, and HawkEye 360; GPS; miniature CubeSats for education and research; and military/defense satellites.

Loading next visibility...
Identifier
63355, 2025-061E
Orbit
SSO
Country
Flag of USUS
Related business
Manufacturer
Spire/Glasgow
Mission
Operational Commercial Imaging
Bus & Motor
CUBESAT 6U, Unknown motor
Mass
~15 kg wet, ~15 kg dry
Launch date (UTC)
2025-03-26 (6 months ago)
Launch vehicle
ELECTRON
Launch site
Rocket Lab Launch Complex (RLLC)
Object type
Payload
Rocket body
Debris
Shape & HBR
Box + 2 Pan, 0.2 m
Radar Cross Section
0.065 m², Medium (>0.1 m² and < 1m²)

Expand to show TLE details & history
Last TLE update: 14 hours ago

TLE from 14 hours ago
0 LEMUR 2 NEUROSPICY
1 63355U 25061E   25260.86827787  .00005511  00000-0  33265-3 0  9998
2 63355  97.5306 234.4125 0020036 114.7521 245.5797 15.10954647 26444
Epoch: 2025-09-17T20:50Z
TLE epoch observation values (Epoch: 2025-09-17T20:50:19.207Z)
Latitude
-0.00002°
Longitude
-75.20558°
Altitude
542.111 km
Speed
7.588 km/s
True Right ascension
15h 37m 39s
True Declination
0° 00' 00"
Sunlit
Object was in daylight at epoch
Visualization orbit readout
Latitude
Unknown
Longitude
Unknown
Altitude
Unknown
Speed
Unknown
Apparent Right ascension
Unknown
Apparent Declination
Unknown
Sunlit
N/A
Visualization observer readout
Local Sidereal Time
04:03:38
Azimuth
Unknown
Elevation
Unknown
Doppler factor
Unknown
Orbital elements
Apogee altitude
544.112 km
Perigee altitude
516.429 km
Semi-major axis
6,908.408 km
Eccentricity
0.002
Inclination
97.5306°
RAAN
234.4125°
Arg. of periapsis
114.7521°
True anomaly
245.37086°
Mean anomaly
245.5797°
Eccentric anomaly
245.47526°
Mean motion
3.77986 °/min
Orbital period
95.24 mins
BSTAR
0.00033265
Loading maneuver chart data...
Computing Atmospheric mass density...
Loading historical data...
Loading historical data...
Loading historical data...
Loading historical data...
Loading historical data...
Loading historical data...
Loading historical data...

Documentation

Showing up to 5 results
|